CZ-6A DEB

Satellite information

Favourite Embed

Satellite Type and Status

DEBRISIN ORBIT

Key statistics

Satellite CZ-6A DEB at a glance.

Uptime

494

Days in orbit

Revolutions

≈ 14.4

Per day

Orbit

LEO

Low Earth Orbit

Inclination

88.8

Latest

Satellite identification and parameters

Extended collection of information and parameters for CZ-6A DEB.

Object identification

Identified? True

Debris? True

Object name: CZ-6A DEB

International designator: 2024-140HC

Object number (NORAD): 60825

Object ID (CCSDS): 60825

Country: PEOPLES REPUBLIC OF CHINA (PRC)

Current information (Y/N): Y

RCS size: SMALL

Orbital parameters

Period: 99.996 minutes

Inclination: 88.7916 deg

SMA: 7136.423 km

Apoapsis: 801.934 km

Periapsis: 714.642 km

RAAN: 281.6192 deg

Eccentricy: 0.00611589

Argument of periapsis: 255.3426 deg

Mean anomaly: 104.099 deg

Mean motion: 14.40064307 rev/day

Mean motion (dot): 0.00004193 rev/day2

B* drag term: 0.0012965225 1/REarth

Two-line elements (TLE)

Creation date: Dec. 12, 2025, 10:14 a.m.

Reference frame: TEME

Reference center: EARTH

Epoch: Dec. 12, 2025, 5:40 a.m. UTC

TLE line 0: 0 CZ-6A DEB

TLE line 1: 1 60825U 24140HC 25346.23625739 .00004193 00000-0 12965-2 0 9991

TLE line 2: 2 60825 88.7916 281.6192 0061159 255.3426 104.0990 14.40064307 69883

Live tracking on map

Real-time ground track for satellite CZ-6A DEB.

In-orbit conjunctions

A list of the most updated potential collisions computed for object CZ-6A DEB.

Target Orbit TCA Probability of collision Miss distance Type
FENGYUN 1C DEB SSO 2025-09-09 21:28:46 0.0001017056 199.0 (m) DEBRIS
FENGYUN 1C DEB SSO 2025-02-27 14:08:12 0.0001189141 782.0 (m) DEBRIS
NOAA 16 DEB SSO 2025-02-21 03:38:20 0.0002051654 233.0 (m) DEBRIS
NOAA 16 DEB SSO 2025-02-10 12:33:44 0.002403477 91.0 (m) DEBRIS
DMSP 5D-2 F13 DEB SSO 2025-01-17 01:29:10 0.0002171495 739.0 (m) DEBRIS

Associated space launch

18 Low Earth Orbit communication satellites with Ku, Q and V band payloads for the G60 constellation operated by Shanghai Spacecom Satellite Technology (SSST) with funding backed by the Shanghai local government. Initial constellation will consist of 1296 satellites by 2027 with long term plans to expand it to 12000 satellites.

CZ-6A DEB was lifted into orbit during the mission ‘Long March 6A | G60 Polar Group 01’, on board a Long March 6A space rocket.

The launch took place on Aug. 6, 2024, 6:42 a.m. from Launch Complex 9A.

For more information about the launch, click the button.

Launch to space Long March 6A | G60 Polar Group 01
Long March 6A | G60 Polar Group 01

Agency: N/A

Status: Launch Successful

Launch date: Aug. 6, 2024, 6:42 a.m. UTC

Rocket: Long March 6A

Launch pad: Launch Complex 9A

Location: Taiyuan Satellite Launch Center, People's Republic of China

...

Latest news about this satellite

News about space launch
Brightness of first Chinese broadband constellation satellites alarms astronomers

The first satellites of a Chinese broadband constellation are significantly brighter than those of Western systems, posing a new challenge for astronomers.

News about space launch
Chinese rocket stage breaks up into cloud of more than 700 pieces of space debris

HELSINKI — A Chinese Long March 6A rocket’s upper stage has fragmented into a cloud of over 700 pieces of space debris, adding to concerns about long-term orbital safety. China […]

News about space launch
China's Thousand Sails Megaconstellation Kicks Off with Dangerous Debris Field

China's Thousand Sails Megaconstellation Kicks Off with Dangerous Debris Field


Newsletter sign-up

Weekly statistics, charts and insights to help you stay on top of the space industry.